Location: Lane
(33.5226°N, 79.8788°W)
Time: 02:56:47
(UTC+00:00)

Tiros 1 despin weight - Pass Details

Date: 09 October 2022
Orbit: 590 x 637 km, 48.2° (Epoch: 30 November)

Event Time Altitude Azimuth Distance (km) Brightness Sun altitude
Rises 19:49:59 0° 277° (W) 2,822 ? 34.4°
Reaches altitude 10° 19:52:52 10° 296° (WNW) 1,929 ? 33.9°
Maximum altitude 19:55:58 18° 341° (NNW) 1,469 ? 33.4°
Drops below altitude 10° 19:59:06 10° 26° (NNE) 1,950 ? 32.8°
Sets 20:02:02 0° 45° (NE) 2,866 ? 32.3°
